星链-1269 (STARLINK-1269 )

导读

STARLINK-1269是美国星链星座的一颗卫星,星链是SpaceX打造的低轨卫星互联网星座项目。该星于2020年2月17日发射,是星链早期组网批次卫星,运行在近地轨道,为全球提供高速互联网接入服务,推动星链星座的全球覆盖进程,也是美国低轨卫星通信布局的组成部分。

Basic Information
目录编号:
45197
目录名称:
STARLINK-1269
国际标识:
2020-012V
轨道中心:
EARTH
卫星名称:
星链-1269
卫星全名:
星链-1269 (STARLINK-1269 )
卫星状态:
在轨 (已飞行2401 天)
发射日期:
2020-02-17 UTC
国别 :
美国 (US)
星等 :
--
This satellite is enrolled in the Space Conjunction Data Service (SCDS) and the current flight risk assessment level is: No High Risk
Orbit Information
数据来源 国际轨道数据 AOE轨道数据
星历时间 2026-09-13T23:50:35+0800
9小时前
查看轨道信息
2026-09-12T23:00:00+0800
1天前
查看轨道信息
半长轴 6815.921km 6816.148km
偏心率 0.0003543 0.0002964
轨道倾角 53.151° 53.153°
近地点辐角 44.420° 41.091°
升交点赤经 239.339° 244.243°
平近点角 315.709° 326.592°
近地点 435.369km 435.99km
远地点 440.199km 440.032km
周期 93.335分钟 93.340分钟
每日圈数 15.428227 15.427454
Detailed Information
固有亮度:
5
最大亮度:
2.5
卫星平台:
Starlink V1.0
覆盖范围:
全球
运营商:
太空探索技术公司
运营商所在国:
美国
制造商(研发单位):
太空探索技术公司
制造商所在国:
美国
使用方式:
暂无
Satellite Introduction
星链(Starlink)计划是由太空探索技术公司(SpaceX)提出的一个巨型低轨卫星互联网星座项目,计划在2019年至2024年间在太空搭建由约1.2万颗卫星组成的“星链”网络,其中1584颗将部署在地球上空550千米处的近地轨道,并从2020年开始工作。该卫星仍在工作。
2D Orbit Map
3D Orbit Map
Orbit Altitude Analysis Chart
Orbit Inclination Analysis Chart
Orbit Comprehensive Analysis Chart
View Comprehensive Chart
Miss Distance Evolution Trend with All Objects
Collision Probability Evolution Trend with All Objects